[[{"header":{"parameterUnit":"m.s-1","parameterCategory":1,"la1":30.2991,"la2":30.254,"lo1":-89.0895,"lo2":-89.0444,"dy":0.0017,"dx":0.0017,"nx":28,"ny":28,"refTime":"2024-10-03T21:00:00:Z","depth":0,"parameterNumber":2,"parameterNumberName":"U-component_of_WINDS"},"data":[0,0,0,0,0,0,0,0,0,0,0,0,0,0,0,0,0,0,0,0,0,0,0,0,0,0,0,0,0,0,0,0,0,0,0,0,0,0,0,0,0,0,0,0,0,0,0,0,0,0,0,0,0,0,0,0,0,0,-5.1351,-5.1351,0,-5.1332,-5.1332,-5.1331,-5.1236,-5.1234,-5.1231,-5.1229,-5.1211,-5.1212,-5.1214,0,0,0,0,0,0,0,0,0,0,0,0,0,-5.1309,-5.131,-5.1351,-5.1351,-5.1351,-5.1332,-5.1332,-5.1331,-5.1236,-5.1233,-5.1231,-5.1228,-5.121,-5.1212,-5.1214,0,0,0,0,0,0,0,0,0,0,0,0,0,-5.1312,-5.131,-5.1351,-5.1301,-5.1296,-5.1332,-5.1332,-5.1331,-5.1237,-5.1233,-5.123,-5.1227,-5.1209,-5.1212,-5.1214,-5.1297,0,0,-5.1222,-5.1223,0,0,0,0,0,0,0,0,-5.1312,-5.1314,-5.1309,-5.1304,-5.1299,-5.1283,-5.131,-5.132,-5.1238,-5.1259,-5.1229,-5.1225,-5.1238,-5.1237,-5.1241,-5.1296,-5.1296,-5.1222,-5.1223,-5.1224,-5.1225,0,0,0,0,0,0,0,-5.1312,-5.1314,-5.1344,-5.1309,-5.1303,-5.128,-5.1277,-5.1311,-5.1268,-5.1257,-5.125,-5.1249,-5.1234,-5.1239,-5.124,-5.1295,-5.1222,-5.1224,-5.1225,-5.1226,-5.1419,-5.1423,0,0,0,0,0,0,-5.1318,-5.1315,-5.1344,-5.1343,-5.1297,-5.1284,-5.128,-5.1292,-5.1267,-5.126,-5.1252,-5.1245,-5.1237,-5.1237,-5.1239,-5.1335,-5.1224,-5.1227,-5.1228,-5.1416,-5.142,-5.1424,0,0,0,0,0,0,-5.1318,-5.1322,-5.1345,-5.1327,-5.1328,-5.1288,-5.1302,-5.1293,-5.1297,-5.1263,-5.1255,-5.1265,-5.1234,-5.1236,-5.1284,-5.1333,-5.1228,-5.123,-5.1411,-5.1417,-5.1422,-5.1528,0,0,0,0,0,0,-5.1317,-5.1322,-5.1353,-5.1328,-5.1329,-5.1389,-5.1305,-5.1295,-5.1302,-5.1292,-5.1273,-5.1267,-5.1231,-5.1281,-5.1286,-5.1335,-5.1232,-5.1407,-5.1414,-5.1421,-5.152,-5.1536,-5.155,0,0,0,0,0,-5.1316,-5.1383,-5.1355,-5.1359,-5.1366,-5.1392,-5.1393,-5.1351,-5.1306,-5.1337,-5.1315,-5.1267,-5.1327,-5.1286,-5.1292,-5.1342,-5.1403,-5.1412,-5.142,-5.1513,-5.1533,-5.155,0,0,0,0,0,0,-5.1414,-5.1379,-5.1347,-5.1408,-5.1404,-5.1376,-5.1413,-5.1373,-5.1382,-5.1372,-5.132,-5.1317,-5.1373,-5.1362,-5.1317,-5.1422,-5.1357,-5.1367,-5.1426,-5.1445,-5.146,-5.1461,-5.1234,0,0,0,0,0,-5.1442,-5.1466,-5.1434,-5.1491,-5.1491,-5.1453,-5.1463,-5.1431,-5.1425,-5.1422,-5.1404,-5.1401,-5.1419,-5.1431,-5.1446,-5.1519,-5.1513,-5.1556,-5.1571,-5.1584,-5.1592,-5.1631,-5.165,-5.1451,-5.1451,-5.1451,0,0,-5.1502,-5.1486,-5.1503,-5.1511,-5.1504,-5.153,-5.1452,-5.1483,-5.1502,-5.1427,-5.1471,-5.1458,-5.1451,-5.1512,-5.1538,-5.1505,-5.1647,-5.1594,-5.1605,-5.1606,-5.1642,-5.166,-5.1677,-5.1457,-5.1456,-5.1455,0,0,-5.1623,-5.1613,-5.166,-5.1655,-5.1646,-5.1621,-5.1632,-5.1611,-5.16,-5.1643,-5.1588,-5.1611,-5.1643,-5.1641,-5.1644,-5.1768,-5.1724,-5.1775,-5.1854,-5.1892,-5.1908,-5.1921,-5.1966,-5.1982,-5.1784,-5.1784,-5.1784,0,-5.1697,-5.1734,-5.1689,-5.1724,-5.1729,-5.1664,-5.1711,-5.1709,-5.1706,-5.1711,-5.1675,-5.1715,-5.1705,-5.1765,-5.1796,-5.18,-5.1813,-5.1775,-5.1909,-5.1922,-5.1934,-5.1976,-5.1993,-5.179,-5.1789,-5.1789,-5.1788,0,-5.1827,-5.1854,-5.1893,-5.1891,-5.1901,-5.1943,-5.1905,-5.1921,-5.1889,-5.1868,-5.1915,-5.1902,-5.1913,-5.1925,-5.1895,-5.1982,-5.1962,-5.1918,-5.1852,-5.196,-5.1998,-5.2014,-5.1799,-5.1796,-5.1795,-5.1793,0,0,-5.2006,-5.1981,-5.1996,-5.1995,-5.1982,-5.2002,-5.2042,-5.2053,-5.2068,-5.2069,-5.2101,-5.2131,-5.2092,-5.2095,-5.2064,-5.2098,-5.2198,-5.205,-5.2049,-5.2078,-5.2294,-5.2326,-5.2345,-5.217,-5.2173,-5.2175,-5.2294,0,-5.2121,-5.2186,-5.2148,-5.2219,-5.2244,-5.2184,-5.2218,-5.2215,-5.2197,-5.2217,-5.2198,-5.222,-5.2165,-5.2167,-5.2198,-5.2179,-5.224,-5.217,-5.22,-5.2201,-5.2202,-5.2365,-5.2399,-5.2512,-5.2309,-5.2312,-5.2313,0,-5.2264,-5.2271,-5.2345,-5.2329,-5.2338,-5.2369,-5.2378,-5.2397,-5.2393,-5.2378,-5.2384,-5.2345,-5.2384,-5.2321,-5.2374,-5.2327,-5.2337,-5.233,-5.2334,-5.2333,-5.2263,-5.2369,-5.2547,-5.2563,-5.2337,-5.2335,-5.2333,0,-5.2387,-5.2416,-5.2464,-5.2465,-5.2447,-5.2471,-5.2465,-5.2457,-5.2468,-5.2476,-5.2482,-5.2495,-5.2502,-5.2513,-5.2479,-5.2436,-5.2538,-5.2471,-5.2527,-5.2528,-5.2549,-5.2548,-5.273,-5.2558,-5.2558,-5.2558,-5.2557,0,-5.2519,-5.2566,-5.2519,-5.2548,-5.26,-5.2557,-5.261,-5.2598,-5.2592,-5.2619,-5.2569,-5.2595,-5.255,-5.2572,-5.2546,-5.2595,-5.2599,-5.2588,-5.258,-5.2592,-5.2593,-5.2596,-5.2587,-5.2562,-5.2561,-5.256,-5.2559,0,-5.2664,-5.2634,-5.2682,-5.2663,-5.2659,-5.2698,-5.2682,-5.2709,-5.2689,-5.2724,-5.273,-5.2699,-5.2723,-5.2691,-5.2712,-5.2695,-5.2761,-5.2742,-5.2762,-5.2757,-5.2814,-5.2809,-5.3003,-5.3027,-5.2841,-5.2843,-5.2844,0,-5.2749,-5.2784,-5.2769,-5.2784,-5.2781,-5.2804,-5.2815,-5.2775,-5.2788,-5.2788,-5.2815,-5.2835,-5.2848,-5.289,-5.287,-5.2886,-5.2867,-5.2934,-5.2869,-5.288,-5.2867,-5.2865,-5.2869,-5.2947,-5.2949,-5.2951,-5.2953,0,-5.2904,-5.2889,-5.2905,-5.2918,-5.2932,-5.294,-5.2944,-5.2959,-5.2918,-5.2936,-5.2959,-5.297,-5.2992,-5.3013,-5.3024,-5.3019,-5.298,-5.2974,-5.2987,-5.2999,-5.3009,-5.3004,-5.2798,-5.2969,-5.2967,-5.2966,-5.2965,-5.2965,-5.3021,-5.305,-5.3045,-5.3066,-5.3065,-5.3071,-5.3096,-5.308,-5.3099,-5.3114,-5.309,-5.3121,-5.3118,-5.3129,-5.3129,-5.3153,-5.3124,-5.3144,-5.3148,-5.3154,-5.3162,-5.3007,-5.3155,-5.3155,-5.3154,-5.3154,-5.3153,0,-5.3173,-5.3167,-5.3187,-5.3195,-5.3213,-5.3175,-5.3179,-5.3196,-5.3223,-5.3224,-5.3239,-5.3268,-5.3288,-5.3271,-5.3288,-5.3311,-5.3294,-5.3317,-5.3314,-5.3314,-5.3187,-5.3173,-5.3331,-5.3331,-5.3331,-5.3331,-5.3331,-5.3331,-5.3254,-5.3301,-5.3286,-5.3333,-5.3327,-5.3356,-5.3362,-5.3368,-5.3368,-5.3402,-5.3419,-5.3408,-5.3403,-5.3419,-5.3437,-5.3432,-5.344,-5.347,-5.3458,-5.334,-5.3322,-5.3306,-5.3292,-5.3472,-5.3473,-5.3582,-5.3583,-5.3584]},{"header":{"parameterUnit":"m.s-1","parameterCategory":1,"la1":30.2991,"la2":30.254,"lo1":-89.0895,"lo2":-89.0444,"dy":0.0017,"dx":0.0017,"nx":28,"ny":28,"refTime":"2024-10-03T21:00:00:Z","depth":0,"parameterNumber":3,"parameterNumberName":"V-component_of_WINDS"},"data":[0,0,0,0,0,0,0,0,0,0,0,0,0,0,0,0,0,0,0,0,0,0,0,0,0,0,0,0,0,0,0,0,0,0,0,0,0,0,0,0,0,0,0,0,0,0,0,0,0,0,0,0,0,0,0,0,0,0,2.0873,2.0873,0,2.0906,2.0907,2.0907,2.0977,2.0978,2.098,2.0981,2.101,2.1009,2.1008,0,0,0,0,0,0,0,0,0,0,0,0,0,2.0865,2.0864,2.0873,2.0873,2.0873,2.0906,2.0907,2.0907,2.0977,2.0978,2.098,2.0982,2.101,2.1009,2.1008,0,0,0,0,0,0,0,0,0,0,0,0,0,2.088,2.0864,2.0872,2.0912,2.0916,2.0906,2.0907,2.0907,2.0976,2.0978,2.098,2.0982,2.101,2.1009,2.1008,2.0961,0,0,2.1006,2.1005,0,0,0,0,0,0,0,0,2.0879,2.088,2.0906,2.0909,2.0914,2.094,2.0914,2.0925,2.0976,2.0953,2.0981,2.0983,2.0984,2.0986,2.0987,2.0962,2.0963,2.1006,2.1005,2.1005,2.1005,0,0,0,0,0,0,0,2.0878,2.0879,2.0886,2.0906,2.0911,2.0927,2.0932,2.0917,2.0956,2.0955,2.096,2.0964,2.0987,2.0988,2.0988,2.0964,2.1006,2.1005,2.1004,2.1004,2.0901,2.0899,0,0,0,0,0,0,2.0872,2.0878,2.0885,2.0887,2.0901,2.0925,2.0931,2.0929,2.0957,2.0963,2.0962,2.0967,2.0988,2.0989,2.0989,2.0935,2.1005,2.1004,2.1004,2.0903,2.0901,2.0898,0,0,0,0,0,0,2.0871,2.0872,2.0883,2.0884,2.0886,2.0923,2.0921,2.0929,2.093,2.0962,2.0969,2.0956,2.099,2.0991,2.0968,2.0937,2.1004,2.1003,2.0906,2.0902,2.0899,2.0826,0,0,0,0,0,0,2.0871,2.0871,2.0854,2.0883,2.0886,2.0862,2.0919,2.0928,2.0929,2.0936,2.0958,2.0963,2.0992,2.0969,2.0967,2.0937,2.1002,2.0909,2.0904,2.09,2.0831,2.082,2.0811,0,0,0,0,0,2.087,2.0831,2.0853,2.0853,2.0866,2.086,2.0862,2.0896,2.0926,2.0909,2.0929,2.0963,2.0941,2.0966,2.0964,2.0934,2.0911,2.0906,2.0901,2.0835,2.0822,2.0811,0,0,0,0,0,0,2.0795,2.0835,2.086,2.0829,2.0841,2.0872,2.0851,2.0881,2.0883,2.0889,2.0931,2.0935,2.0906,2.0918,2.0945,2.0889,2.0931,2.0926,2.0882,2.087,2.086,2.0857,2.1001,0,0,0,0,0,2.0775,2.0768,2.0803,2.0772,2.0777,2.0813,2.0812,2.0838,2.0851,2.0855,2.0875,2.0884,2.088,2.0876,2.0874,2.0834,2.0839,2.0812,2.0802,2.0794,2.0788,2.0767,2.0755,2.0882,2.0882,2.0882,0,0,2.0733,2.0754,2.0747,2.0758,2.077,2.0761,2.0816,2.0804,2.0797,2.0853,2.0833,2.0847,2.0861,2.0829,2.0816,2.0838,2.0755,2.0788,2.0781,2.0779,2.0761,2.0749,2.0738,2.0878,2.0879,2.0879,0,0,2.0651,2.0667,2.0643,2.0655,2.0674,2.0698,2.0693,2.072,2.0732,2.0713,2.0755,2.0747,2.0739,2.0747,2.075,2.0674,2.0704,2.0672,2.0619,2.0598,2.0588,2.0579,2.0551,2.054,2.0666,2.0666,2.0666,0,2.0595,2.0585,2.0626,2.0612,2.0615,2.0668,2.0644,2.0653,2.0669,2.0669,2.0694,2.0686,2.0699,2.067,2.0651,2.0653,2.0646,2.0668,2.0587,2.0578,2.0571,2.0544,2.0533,2.0662,2.0662,2.0663,2.0663,0,2.0515,2.0507,2.0486,2.0502,2.0503,2.0483,2.0521,2.0517,2.0544,2.0565,2.0545,2.0563,2.0565,2.0561,2.0586,2.0535,2.0548,2.0579,2.0622,2.0554,2.0529,2.0519,2.0656,2.0657,2.0659,2.066,0,0,2.0384,2.0426,2.0417,2.0425,2.0451,2.0445,2.0428,2.0433,2.0428,2.0438,2.0423,2.0416,2.0446,2.0449,2.0476,2.0458,2.0396,2.0492,2.0493,2.0472,2.034,2.0315,2.0302,2.0417,2.0416,2.0414,2.0338,0,2.0307,2.0281,2.0319,2.0284,2.0276,2.0328,2.0313,2.0326,2.0346,2.0342,2.0364,2.0358,2.0398,2.04,2.0385,2.0406,2.0369,2.0413,2.0402,2.0401,2.0395,2.029,2.0263,2.019,2.0329,2.0327,2.0326,0,2.0212,2.022,2.0184,2.0214,2.0212,2.0198,2.0205,2.0201,2.0218,2.0233,2.0239,2.0272,2.0255,2.0299,2.0277,2.0306,2.0304,2.0314,2.0312,2.031,2.0358,2.0283,2.0168,2.0156,2.0312,2.0313,2.0314,0,2.0118,2.0119,2.0099,2.0105,2.0138,2.0127,2.014,2.0159,2.016,2.0166,2.0167,2.0171,2.0172,2.0173,2.0206,2.0235,2.0179,2.0226,2.019,2.0189,2.0174,2.0174,2.0054,2.0176,2.0176,2.0177,2.0177,0,2.0026,2.0002,2.0057,2.0044,2.0018,2.0062,2.0035,2.0054,2.007,2.0061,2.0106,2.0096,2.0141,2.0135,2.016,2.0137,2.0138,2.0149,2.0156,2.0144,2.0142,2.0141,2.0146,2.0174,2.0174,2.0175,2.0175,0,1.9915,1.9952,1.9932,1.9967,1.9975,1.9954,1.9983,1.9972,1.9996,1.9984,1.9983,2.002,2.0016,2.005,2.0051,2.0069,2.0033,2.0049,2.0027,2.0031,1.9993,1.9996,1.9867,1.9852,1.9985,1.9984,1.9983,0,1.9853,1.9836,1.987,1.9868,1.9879,1.9875,1.9877,1.992,1.9919,1.9938,1.9924,1.9924,1.9926,1.9916,1.9942,1.9944,1.9959,1.9914,1.9959,1.9948,1.9957,1.9956,1.9954,1.9904,1.9902,1.9901,1.99,0,1.9739,1.9758,1.976,1.9767,1.9769,1.9777,1.9787,1.9782,1.9829,1.9826,1.9824,1.9826,1.9829,1.9827,1.9834,1.9847,1.988,1.9886,1.9877,1.9864,1.9851,1.9856,1.9999,1.9888,1.9889,1.989,1.989,1.9891,1.9649,1.9637,1.9659,1.9659,1.9672,1.9682,1.9673,1.9697,1.9697,1.9703,1.9729,1.9722,1.9739,1.9752,1.9762,1.9756,1.9777,1.9765,1.9762,1.9757,1.975,1.9854,1.9757,1.9758,1.9758,1.9758,1.9759,0,1.9536,1.9553,1.9553,1.9568,1.9568,1.9603,1.9617,1.9614,1.9608,1.9623,1.9625,1.9621,1.9621,1.9648,1.9651,1.9641,1.9656,1.964,1.964,1.9642,1.9731,1.9738,1.9627,1.9627,1.9627,1.9627,1.9628,1.9628,1.9477,1.9457,1.9479,1.9467,1.9484,1.9479,1.9484,1.9492,1.9504,1.95,1.95,1.9519,1.9538,1.9543,1.9544,1.9552,1.955,1.9528,1.9541,1.9623,1.9636,1.9648,1.9654,1.9528,1.9528,1.9452,1.9451,1.9451]}]]